User: anonymous   Login
Location: Unspecified
(0.0000°N, 0.0000°E)
Time: 03:32:41
(UTC+00:00)
Language:

RESURS DK-1 - Orbit

View from above orbital plane
View from above orbital plane
View from above satellite
View from above satellite

Ground track
Ground track

The orbit data is extracted from the following two-line orbital elements,

1 29228U 06021A   17117.89884446 +.00000244 +00000-0 +25881-4 0  9998
2 29228 069.9360 226.0190 0002553 020.5766 339.5497 15.02138532600544
Epoch (UTC): 27 April 2017 21:34:20
Eccentricity: 0.0002553
inclination: 69.9360°
perigee height: 558 km
apogee height: 562 km
right ascension of ascending node: 226.0190°
argument of perigee: 20.5766°
revolutions per day: 15.02138532
mean anomaly at epoch: 339.5497°
orbit number at epoch: 60054

The dashed part of the orbit path shows where the satellite is in the earth's shadow,  

DLR